Location: Newark
(25.1987°N, 100.3705°W)
Time: 03:35:30
(UTC+00:00)

Envisat - Pass Details

Date: 06 August 2021
Orbit: 764 x 766 km, 98.2° (Epoch: 26 September)

Event Time Altitude Azimuth Distance (km) Brightness Sun altitude
Rises 11:43:00 0° 13° (NNE) 3,230 6.8 -6.8°
Reaches altitude 10° 11:45:19 10° 15° (NNE) 2,301 6.0 -6.4°
Maximum altitude 11:50:23 79° 102° (ESE) 782 3.2 -5.3°
Drops below altitude 10° 11:55:26 10° 189° (S) 2,291 5.2 -4.2°
Sets 11:57:44 0° 190° (S) 3,214 5.9 -3.7°
